Current Weather Conditions: station ENDR

sailwx.info

See reports from other nearby stations

no recent reports received from weather station ID ENDR

Tides Pressure Air temp Water temp Dewpoint Dewpoint depression Visibility Wind speed Wind direction Waves Ship positions
date/time (UTC)wind fromknots sea level pressurealtimeterstation pressurevisibilityair tempwater tempwave heightnotes
2017-Feb-27 19:20 210 8 6.0
2017-Feb-27 18:50 260 6 6.0
2017-Feb-27 18:20 270 13 6.0
2017-Feb-27 17:50 260 13 6.0
2017-Feb-27 17:20 250 18 6.0
2017-Feb-27 16:50 230 22 6.0
2017-Feb-27 16:20 220 21 6.0
2017-Feb-27 15:50 220 25 6.0
2017-Feb-27 15:10 230 26 5.4 7.0 Showers in the vicinity.
2017-Feb-27 14:50 220 21 7.0
2017-Feb-27 14:20 230 29 6.0
2017-Feb-27 13:50 250 27 6.0
2017-Feb-27 13:20 230 22 7.0
2017-Feb-27 12:50 200 14 6.0
2017-Feb-27 12:10 190 8 5.4 5.0 Showers in the vicinity.
2017-Feb-27 11:50 150 8 4.0
2017-Feb-27 11:20 170 6 4.0
2017-Feb-27 10:50 120 6 4.0
2017-Feb-27 10:20 110 6 4.0
2017-Feb-27 09:50 100 6 4.0
2017-Feb-27 09:10 090 8 5.4 4.0
2017-Feb-27 08:50 090 9 4.0
2017-Feb-27 08:20 110 13 3.0
2017-Feb-27 07:50 100 14 3.0
2017-Feb-27 07:20 090 18 3.0
2017-Feb-27 06:50 090 19 3.0
2017-Feb-27 06:10 080 21 5.4 4.0
2017-Feb-27 05:50 080 21 4.0
2017-Feb-27 05:20 080 20 4.0
2017-Feb-27 04:50 070 26 4.0
2017-Feb-27 04:20 070 29 4.0
2017-Feb-27 03:50 080 29 5.0
2017-Feb-27 03:20 070 27 5.0
2017-Feb-27 02:50 070 26 5.0
2017-Feb-27 02:20 070 24 5.0
2017-Feb-27 01:50 070 21 5.0
2017-Feb-27 01:20 080 20 5.0
2017-Feb-27 00:50 090 17 5.0
2017-Feb-27 00:20 080 17 5.0
2017-Feb-26 23:50 080 13 5.0
2017-Feb-26 23:20 070 14 5.0
2017-Feb-26 22:50 070 11 5.0
2017-Feb-26 22:20 070 14 4.0
2017-Feb-26 21:50 070 14 5.0
2017-Feb-26 21:20 150 6 5.0
2017-Feb-26 20:50 180 7 5.0
2017-Feb-26 20:20 200 8 4.0
2017-Feb-26 19:50 200 11 4.0
2017-Feb-26 19:20 150 1 5.0
2017-Feb-26 18:50 280 1 5.0
2017-Feb-26 18:20 240 4 5.0
2017-Feb-26 17:50 250 6 5.0
2017-Feb-26 17:20 270 8 5.0
2017-Feb-26 16:50 260 7 5.0
2017-Feb-26 16:20 260 11 5.0
2017-Feb-26 15:50 270 11 5.0
2017-Feb-26 15:10 270 13 5.4 6.0 Showers in the vicinity.
2017-Feb-26 14:50 280 13 6.0
2017-Feb-26 14:20 280 13 6.0
2017-Feb-26 13:50 270 14 6.0
2017-Feb-26 13:20 260 15 5.0
2017-Feb-26 12:50 270 14 7.0
2017-Feb-26 12:10 280 17 5.4 7.0
2017-Feb-26 11:50 280 19 7.0
2017-Feb-26 11:20 270 19 6.0
2017-Feb-26 10:50 280 19 6.0
2017-Feb-26 10:20 270 20 6.0
2017-Feb-26 09:50 280 20 6.0
2017-Feb-26 09:10 280 21 5.4 6.0
2017-Feb-26 08:50 280 21 6.0
2017-Feb-26 08:20 280 20 6.0
2017-Feb-26 07:50 280 22 6.0
2017-Feb-26 07:20 290 24 6.0
2017-Feb-26 06:50 280 26 6.0
2017-Feb-26 06:10 280 27 5.4 6.0
2017-Feb-26 05:50 280 27 6.0
2017-Feb-26 05:20 280 28 6.0
2017-Feb-26 04:50 280 28 6.0
2017-Feb-26 04:20 280 31 6.0
2017-Feb-26 03:50 280 29 7.0
2017-Feb-26 03:20 280 33 6.0
2017-Feb-26 02:50 280 33 7.0
2017-Feb-26 02:20 280 27 6.0
2017-Feb-26 01:50 280 27 gusting 39 7.0
2017-Feb-26 01:20 280 27 7.0
2017-Feb-26 00:50 260 26 7.0
2017-Feb-26 00:20 260 27 6.0
2017-Feb-25 23:50 6.0
2017-Feb-25 23:20 250 26 6.0
2017-Feb-25 22:50 240 31 5.0
2017-Feb-25 22:20 170 20 5.0
2017-Feb-25 21:50 140 20 2.0
2017-Feb-25 21:20 140 20 2.0
2017-Feb-25 20:50 140 20 1.0
2017-Feb-25 20:20 130 20 -0.0